Volver al catálogo

STARLINK-11201

ActivoComunicacionesVLEO
NORAD 60113·PAYLOAD·🇺🇸 United States

Lanzado Jun 24, 2024 desde Vandenberg Space Force Base

Loading…

Próximos Pases (próximas 24 horas)

TLE

ActualizadoSource: CelesTrak SupGP

Época: Sep 14, 2026, 22:27 UTC

1 60113C 24118A   26257.93590278 -.00040882  00000+0 -33660-3 0  2573
2 60113  53.1568   8.6617 0001028  72.0109 240.4879 15.69741434    18

Sigue STARLINK-11201 en tiempo real con AllMySat

Download on the App Store